{"data":{"norad_id":62887,"epoch":"2026-05-25T02:12:47.954016Z","epoch_age_seconds":66339,"freshness":"FRESH","line1":"1 62887U 25024J   26145.09222169  .00172796  00000+0  13208-2 0  9990","line2":"2 62887  43.0023  80.8432 0001939 246.9725 113.0938 15.70866552 75481","mean_motion":15.70866552,"eccentricity":0.0001939,"inclination_deg":43.0023,"raan_deg":80.8432,"arg_perigee_deg":246.9725,"mean_anomaly_deg":113.0938,"bstar":0.0013208,"rev_number":7548,"period_min":91.66914899083,"perigee_km":355.11334161048,"apogee_km":357.725002494,"semimajor_km":6734.5561720522,"source":"CELESTRAK","updated_at":"2026-05-25T13:38:19.789927Z"}}